Home > Time Zones > World Clock > Weather > Russia > Perm > Past weeks

Flag for Russia Weather past 2 weeks in Perm, Russia

Now
59 °F

Light rain. Low clouds.


Feels Like: 58 °F
Forecast: 57 / 65 °F
Wind: 6 mph from Northwest

Location: Perm'/Bolshoe Savino

Current Time: Jul 2, 2015 at 1:19:33 AM

Latest Report: Jul 2, 2015 at 12:30 AM


Visibility: 5 mi

Pressure: 29.68 "Hg

Humidity: 94%

Dew point: 57 °F

Location of PermLocation

Historic Weather in Perm — Graph

°F

Perm temperature yesterday

Maximum temperature yesterday: 63 °F (at 2:30 AM)
Minimum temperature yesterday: 59 °F (at 7:30 AM)
Average temperature yesterday: 60 °F

Past Weeks' High & Low Weather Summary

 TemperatureHumidityPressure
High93 °F (Jun 22, 1:30 PM)100% (Jun 18, 3:00 AM)30.09 "Hg (Jun 18, 3:00 AM)
Low52 °F (Jun 19, 4:30 AM)26% (Jun 22, 3:30 PM)29.68 "Hg (Jun 18, 11:30 AM)
Average70 °F74%29.89 "Hg
* Reported Midnight between Jun 16 and Jun 17 — Midnight between Jul 1 and Jul 2, Perm, Weather by CustomWeather, © 2015

Note: Actual official high and low records may vary slightly from our data, if they occured in-between our weather recording intervals... More about our weather records

Advertising

Perm weather history for previous 24 hours

 ConditionsComfort  
Time TempWeatherWind HumidityBarometerVisibility
12:00 AM
Thu, Jul 2
59 °FLight rain. Fog.6 mph94%29.68 "Hg2 mi
11:30 PM
Wed, Jul 1
59 °FLight rain. Fog.3 mph94%29.71 "Hg1 mi
11:00 PM59 °FRain. Fog.6 mph100%29.71 "Hg1 mi
10:30 PM59 °FLight rain. Fog.3 mph100%29.71 "Hg2 mi
10:00 PM59 °FFog.6 mph100%29.71 "Hg3 mi
9:30 PM59 °FLow clouds.3 mph100%29.74 "Hg4 mi
9:00 PM59 °FLow clouds.6 mph100%29.74 "HgN/A
8:30 PM59 °FLow clouds.6 mph100%29.74 "HgN/A
8:00 PM61 °FLight rain. Mostly cloudy.3 mph94%29.74 "Hg5 mi
7:30 PM61 °FLight rain. Mostly cloudy.3 mph100%29.74 "Hg4 mi
7:00 PM61 °FLight rain. Fog.3 mph100%29.74 "Hg3 mi
6:30 PM61 °FLight rain. Mostly cloudy.1 mph100%29.74 "Hg4 mi
6:00 PM61 °FLight rain. Mostly cloudy.3 mph100%29.74 "Hg5 mi
5:30 PM61 °FLight rain. Mostly cloudy.3 mph94%29.74 "Hg4 mi
5:00 PM61 °FLight rain. Mostly cloudy.3 mph94%29.77 "Hg4 mi
4:30 PM61 °FLight rain. Mostly cloudy.6 mph100%29.77 "Hg4 mi
4:00 PM61 °FLight rain. Mostly cloudy.6 mph100%29.77 "Hg4 mi
3:30 PM61 °FLight rain. Fog.6 mph94%29.77 "Hg2 mi
3:00 PM61 °FLight rain. Fog.6 mph94%29.77 "Hg2 mi
2:30 PM61 °FLight rain. Fog.6 mph94%29.77 "Hg2 mi
2:00 PM61 °FLow clouds.3 mph94%29.77 "HgN/A
1:30 PM61 °FSprinkles. Mostly cloudy.3 mph94%29.77 "HgN/A
1:00 PM61 °FSprinkles. Mostly cloudy.3 mph94%29.77 "HgN/A
12:30 PM61 °FSprinkles. Mostly cloudy.6 mph94%29.77 "HgN/A
12:00 PM61 °FSprinkles. Mostly cloudy.6 mph94%29.77 "HgN/A
11:30 AM59 °FSprinkles. Cloudy.6 mph94%29.77 "Hg6 mi
11:00 AM59 °FSprinkles. Mostly cloudy.6 mph94%29.77 "Hg5 mi
10:30 AM59 °FOvercast.6 mph94%29.77 "HgN/A
10:00 AM59 °FLow clouds.6 mph94%29.77 "HgN/A
9:30 AM61 °FLow clouds.6 mph94%29.77 "HgN/A
9:00 AM59 °FLow clouds.8 mph94%29.77 "HgN/A
8:30 AM59 °FSprinkles. Mostly cloudy.8 mph100%29.77 "HgN/A
7:30 AM59 °FLow clouds.6 mph100%29.77 "Hg6 mi
7:00 AM61 °FMostly cloudy.6 mph94%29.74 "Hg4 mi
6:30 AM61 °FLow clouds.6 mph100%29.74 "Hg4 mi
6:00 AM61 °FLow clouds.6 mph100%29.74 "Hg5 mi
5:30 AM61 °FLow clouds.6 mph100%29.74 "Hg4 mi
5:00 AM63 °FLow clouds.8 mph94%29.74 "Hg5 mi
4:30 AM63 °FLow clouds.8 mph94%29.77 "Hg5 mi
4:00 AM63 °FLow clouds.8 mph94%29.77 "HgN/A
3:30 AM63 °FMostly cloudy.6 mph100%29.77 "HgN/A
2:30 AM63 °FMostly cloudy.No wind94%29.74 "Hg4 mi
2:00 AM61 °FMostly cloudy.No wind100%29.74 "Hg4 mi
1:30 AM61 °FMostly cloudy.3 mph100%29.74 "Hg4 mi
1:00 AM61 °FMostly cloudy.6 mph100%29.74 "Hg4 mi
Weather by CustomWeather, © 2015

See weather overviewHow to use our weather pages